AAL751 KMVY-KLGA

Flight info

Callsign AAL751
Flight time 0h 39m
Altitude 16000
Route MVY V146 PUT NELIE VADDR1
Aircraft B738/M-SDE2E3FGHIRWXY/LB1

Departure

Time 2026-04-25 19:23
Airport Martha's Vineyard Airport (KMVY)

Arrival

Time 2026-04-25 20:03
Airport LaGuardia Airport (KLGA)
Time Latitude Longitude Altitude Speed Heading
2026-04-25 19:13 41.39073 -70.61170 61 ft 0 kts 296°
2026-04-25 19:20 41.39056 -70.61299 64 ft 17 kts 222°
2026-04-25 19:20 41.38964 -70.61403 62 ft 17 kts 220°
2026-04-25 19:20 41.38879 -70.61503 60 ft 17 kts 221°
2026-04-25 19:20 41.38779 -70.61614 66 ft 19 kts 220°
2026-04-25 19:21 41.38678 -70.61730 64 ft 19 kts 221°
2026-04-25 19:21 41.38662 -70.61905 64 ft 13 kts 329°
2026-04-25 19:21 41.38689 -70.61899 65 ft 0 kts 38°
2026-04-25 19:22 41.39106 -70.61427 65 ft 123 kts 40°
2026-04-25 19:23 41.39914 -70.60524 546 ft 168 kts 30°
2026-04-25 19:23 41.42402 -70.60119 2386 ft 185 kts 346°
2026-04-25 19:23 41.43508 -70.61096 3145 ft 197 kts 309°
2026-04-25 19:24 41.44070 -70.62738 4052 ft 196 kts 294°
2026-04-25 19:24 41.44565 -70.64456 4719 ft 203 kts 294°
2026-04-25 19:24 41.45335 -70.68562 5425 ft 258 kts 276°
2026-04-25 19:25 41.45479 -70.73474 7235 ft 268 kts 276°
2026-04-25 19:25 41.45751 -70.75929 8219 ft 268 kts 285°
2026-04-25 19:25 41.46455 -70.78210 9238 ft 266 kts 301°
2026-04-25 19:26 41.47385 -70.80349 10223 ft 268 kts 301°
2026-04-25 19:26 41.48336 -70.82579 10700 ft 288 kts 300°
2026-04-25 19:26 41.49350 -70.85036 10891 ft 315 kts 299°
2026-04-25 19:26 41.50422 -70.87715 11084 ft 340 kts 298°
2026-04-25 19:27 41.51558 -70.90607 11245 ft 362 kts 298°
2026-04-25 19:27 41.51938 -70.91581 11352 ft 367 kts 298°
2026-04-25 19:27 41.53944 -70.96723 12448 ft 376 kts 298°
2026-04-25 19:27 41.55180 -70.99799 13241 ft 377 kts 299°
2026-04-25 19:28 41.56433 -71.02892 13977 ft 379 kts 299°
2026-04-25 19:28 41.57689 -71.05993 14631 ft 381 kts 298°
2026-04-25 19:28 41.58952 -71.09120 15340 ft 382 kts 298°
2026-04-25 19:28 41.60213 -71.12252 15830 ft 385 kts 298°
2026-04-25 19:29 41.61478 -71.15401 15981 ft 385 kts 298°
2026-04-25 19:29 41.62730 -71.18521 15988 ft 386 kts 298°
2026-04-25 19:29 41.63994 -71.21680 15995 ft 385 kts 298°
2026-04-25 19:29 41.65249 -71.24845 15997 ft 385 kts 298°
2026-04-25 19:30 41.66498 -71.28009 15984 ft 385 kts 298°
2026-04-25 19:30 41.67748 -71.31181 16003 ft 385 kts 298°
2026-04-25 19:30 41.68998 -71.34352 16008 ft 385 kts 298°
2026-04-25 19:30 41.70247 -71.37522 16004 ft 385 kts 298°
2026-04-25 19:31 41.71494 -71.40689 16002 ft 385 kts 298°
2026-04-25 19:31 41.72800 -71.43812 15995 ft 385 kts 302°
2026-04-25 19:31 41.74374 -71.46705 16003 ft 385 kts 307°
2026-04-25 19:31 41.76014 -71.49541 16000 ft 385 kts 307°
2026-04-25 19:32 41.77652 -71.52387 15994 ft 385 kts 307°
2026-04-25 19:32 41.79278 -71.55242 16003 ft 385 kts 306°
2026-04-25 19:32 41.80895 -71.58111 15980 ft 386 kts 306°
2026-04-25 19:32 41.81440 -71.59082 15983 ft 386 kts 306°
2026-04-25 19:33 41.84129 -71.63886 15991 ft 388 kts 306°
2026-04-25 19:33 41.85746 -71.66789 15990 ft 389 kts 306°
2026-04-25 19:33 41.87363 -71.69702 15990 ft 390 kts 306°
2026-04-25 19:33 41.88981 -71.72621 15985 ft 389 kts 306°
2026-04-25 19:34 41.90599 -71.75538 15983 ft 389 kts 306°
2026-04-25 19:34 41.92212 -71.78450 15986 ft 388 kts 306°
2026-04-25 19:34 41.93750 -71.81416 15980 ft 387 kts 299°
2026-04-25 19:34 41.94795 -71.84739 15992 ft 386 kts 288°
2026-04-25 19:35 41.95233 -71.87053 15995 ft 387 kts 282°
2026-04-25 19:35 41.95501 -71.90652 15988 ft 390 kts 272°
2026-04-25 19:35 41.95417 -71.95485 15988 ft 390 kts 270°
2026-04-25 19:35 41.95365 -71.97949 15984 ft 391 kts 270°
2026-04-25 19:36 41.95269 -72.02780 15985 ft 391 kts 270°
2026-04-25 19:36 41.95224 -72.05252 15995 ft 392 kts 271°
2026-04-25 19:36 41.95141 -72.10108 15986 ft 393 kts 271°
2026-04-25 19:36 41.95100 -72.12585 15977 ft 393 kts 271°
2026-04-25 19:37 41.95042 -72.16245 15984 ft 392 kts 271°
2026-04-25 19:37 41.94983 -72.19912 15986 ft 392 kts 271°
2026-04-25 19:37 41.94925 -72.23566 15983 ft 392 kts 271°
2026-04-25 19:37 41.94865 -72.27223 15975 ft 391 kts 270°
2026-04-25 19:38 41.94805 -72.30823 15985 ft 390 kts 270°
2026-04-25 19:38 41.94743 -72.34461 15976 ft 389 kts 270°
2026-04-25 19:38 41.94680 -72.38091 15985 ft 389 kts 270°
2026-04-25 19:38 41.94617 -72.41727 15983 ft 390 kts 270°
2026-04-25 19:39 41.94551 -72.45362 15993 ft 390 kts 270°
2026-04-25 19:39 41.94484 -72.49017 15985 ft 391 kts 270°
2026-04-25 19:39 41.94416 -72.52670 15977 ft 392 kts 270°
2026-04-25 19:39 41.94347 -72.56342 15974 ft 392 kts 270°
2026-04-25 19:40 41.94277 -72.60002 15966 ft 391 kts 270°
2026-04-25 19:40 41.94206 -72.63646 15952 ft 389 kts 269°
2026-04-25 19:40 41.94129 -72.67260 15966 ft 386 kts 268°
2026-04-25 19:40 41.93810 -72.70837 15964 ft 387 kts 259°
2026-04-25 19:41 41.93155 -72.74346 15973 ft 387 kts 258°
2026-04-25 19:41 41.92486 -72.77854 15973 ft 388 kts 258°
2026-04-25 19:41 41.91822 -72.81367 15965 ft 389 kts 258°
2026-04-25 19:41 41.91383 -72.83703 15972 ft 389 kts 258°
2026-04-25 19:42 41.90503 -72.88418 15985 ft 389 kts 258°
2026-04-25 19:42 41.89847 -72.91940 15981 ft 390 kts 258°
2026-04-25 19:42 41.89190 -72.95475 15972 ft 390 kts 257°
2026-04-25 19:42 41.88533 -72.99004 15992 ft 391 kts 257°
2026-04-25 19:43 41.87871 -73.02550 15989 ft 392 kts 257°
2026-04-25 19:43 41.87209 -73.06093 15976 ft 391 kts 257°
2026-04-25 19:43 41.86548 -73.09625 15980 ft 390 kts 257°
2026-04-25 19:43 41.85888 -73.13145 15990 ft 389 kts 257°
2026-04-25 19:44 41.85224 -73.16656 15999 ft 388 kts 256°
2026-04-25 19:44 41.84272 -73.20054 15993 ft 390 kts 245°
2026-04-25 19:44 41.82878 -73.23165 15984 ft 389 kts 237°
2026-04-25 19:44 41.81185 -73.25994 15993 ft 390 kts 234°
2026-04-25 19:45 41.79464 -73.28813 15981 ft 391 kts 234°
2026-04-25 19:45 41.77748 -73.31642 15981 ft 391 kts 234°
2026-04-25 19:45 41.76038 -73.34473 15983 ft 391 kts 234°
2026-04-25 19:45 41.74334 -73.37304 15975 ft 391 kts 234°
2026-04-25 19:46 41.72628 -73.40140 15985 ft 391 kts 234°
2026-04-25 19:46 41.70922 -73.42976 15977 ft 391 kts 234°
2026-04-25 19:46 41.69220 -73.45803 15978 ft 390 kts 234°
2026-04-25 19:46 41.67519 -73.48630 15982 ft 390 kts 234°
2026-04-25 19:47 41.65819 -73.51449 15969 ft 390 kts 234°
2026-04-25 19:47 41.64118 -73.54268 15979 ft 390 kts 234°
2026-04-25 19:47 41.62415 -73.57087 15993 ft 390 kts 234°
2026-04-25 19:47 41.60730 -73.59872 15972 ft 377 kts 234°
2026-04-25 19:48 41.59120 -73.62526 15966 ft 358 kts 234°
2026-04-25 19:48 41.57587 -73.65053 15974 ft 341 kts 234°
2026-04-25 19:48 41.56129 -73.67458 15965 ft 325 kts 234°
2026-04-25 19:48 41.54742 -73.69744 15968 ft 309 kts 234°
2026-04-25 19:49 41.53438 -73.71895 15970 ft 295 kts 234°
2026-04-25 19:49 41.52580 -73.73309 15971 ft 286 kts 234°
2026-04-25 19:49 41.50934 -73.76025 15252 ft 292 kts 234°
2026-04-25 19:49 41.49610 -73.78214 14222 ft 314 kts 233°
2026-04-25 19:50 41.46647 -73.82882 12325 ft 341 kts 222°
2026-04-25 19:50 41.44610 -73.84412 12139 ft 334 kts 202°
2026-04-25 19:50 41.42354 -73.84933 12028 ft 327 kts 184°
2026-04-25 19:51 41.40120 -73.84547 11927 ft 321 kts 168°
2026-04-25 19:51 41.38111 -73.83336 11850 ft 315 kts 152°
2026-04-25 19:51 41.36313 -73.81740 11787 ft 305 kts 149°
2026-04-25 19:51 41.34602 -73.80146 11661 ft 296 kts 149°
2026-04-25 19:52 41.32927 -73.78592 11442 ft 291 kts 150°
2026-04-25 19:52 41.31245 -73.77057 10969 ft 296 kts 150°
2026-04-25 19:52 41.29520 -73.75493 10321 ft 306 kts 149°
2026-04-25 19:52 41.27727 -73.73872 9579 ft 317 kts 149°
2026-04-25 19:53 41.25876 -73.72193 8800 ft 326 kts 148°
2026-04-25 19:53 41.23979 -73.70478 8052 ft 334 kts 148°
2026-04-25 19:53 41.22039 -73.68723 7307 ft 340 kts 149°
2026-04-25 19:53 41.20075 -73.66950 6585 ft 343 kts 149°
2026-04-25 19:54 41.18113 -73.65182 5797 ft 337 kts 148°
2026-04-25 19:54 41.16193 -73.63461 5029 ft 328 kts 147°
2026-04-25 19:54 41.14323 -73.61801 4240 ft 319 kts 149°
2026-04-25 19:54 41.13002 -73.61010 3694 ft 314 kts 165°
2026-04-25 19:55 41.10203 -73.61084 3293 ft 290 kts 192°
2026-04-25 19:55 41.08388 -73.62006 3123 ft 272 kts 206°
2026-04-25 19:55 41.06829 -73.63273 3005 ft 253 kts 210°
2026-04-25 19:55 41.05413 -73.64502 2966 ft 233 kts 211°
2026-04-25 19:56 41.04103 -73.65642 2974 ft 218 kts 210°
2026-04-25 19:56 41.02843 -73.66729 2981 ft 215 kts 210°
2026-04-25 19:56 41.01612 -73.67785 2999 ft 204 kts 209°
2026-04-25 19:56 41.00479 -73.68761 2975 ft 184 kts 209°
2026-04-25 19:57 40.99462 -73.69611 2970 ft 163 kts 210°
2026-04-25 19:57 40.98556 -73.70438 2967 ft 154 kts 210°
2026-04-25 19:57 40.97670 -73.71210 2969 ft 154 kts 208°
2026-04-25 19:57 40.96736 -73.71999 3016 ft 164 kts 208°
2026-04-25 19:58 40.95739 -73.72830 2996 ft 174 kts 207°
2026-04-25 19:58 40.94703 -73.73689 2989 ft 177 kts 208°
2026-04-25 19:58 40.93655 -73.74559 2988 ft 178 kts 207°
2026-04-25 19:58 40.92603 -73.75430 2988 ft 179 kts 207°
2026-04-25 19:59 40.91551 -73.76300 2990 ft 178 kts 207°
2026-04-25 19:59 40.90479 -73.77183 2875 ft 185 kts 207°
2026-04-25 19:59 40.89385 -73.78087 2629 ft 185 kts 207°
2026-04-25 19:59 40.88303 -73.78984 2369 ft 180 kts 207°
2026-04-25 20:00 40.87293 -73.79824 2129 ft 164 kts 207°
2026-04-25 20:00 40.86981 -73.80082 2042 ft 160 kts 207°
2026-04-25 20:00 40.85463 -73.81338 1682 ft 151 kts 207°
2026-04-25 20:00 40.84607 -73.82045 1493 ft 142 kts 206°
2026-04-25 20:01 40.82996 -73.83378 1098 ft 133 kts 205°
2026-04-25 20:01 40.82220 -73.84019 905 ft 130 kts 206°
2026-04-25 20:01 40.81454 -73.84653 725 ft 132 kts 209°
2026-04-25 20:02 40.80665 -73.85305 549 ft 136 kts 208°
2026-04-25 20:02 40.79861 -73.85972 370 ft 140 kts 207°
2026-04-25 20:02 40.79028 -73.86660 192 ft 141 kts 208°
2026-04-25 20:02 40.78241 -73.87341 30 ft 123 kts 204°
2026-04-25 20:03 40.77571 -73.87850 21 ft 94 kts 213°
2026-04-25 20:03 40.77217 -73.88165 18 ft 37 kts 212°
2026-04-25 20:03 40.77071 -73.88227 20 ft 16 kts 140°
2026-04-25 20:03 40.77076 -73.88130 19 ft 12 kts 36°
2026-04-25 20:04 40.77087 -73.88121 19 ft 0 kts 33°